MMC

 

 

Mario Martinez Classic - HAND / INVENTORY /

Station: 1 miles - T Race

Distance: 1.609 Kilometers

Release: 07-May-2022 10:40

Weather Release:    Arrival: Sunny

Wind at Release: SWW 6 MILLES     Wind at Arrival: SWW 6 MILLES

Temp at Release: °    Temp at Arrival: °

Lofts: 139

Birds: 615

Clocked: 614

HAND -INVENTORY TO FIND MISSNG AND NOT SCANNING BIRDS
Drops Pos Breeder Pigeon Name Color Sex Ent Arrival Speed To Win Elg Pd
1 3 Amigos Lofts - CA 0104-AU22-SFPC BBWF C 1 10:49:49.50 163.801 00:00:00 Yes
2 Golden Knights Loft - CA 17423-AU22-ARPU Noki BB H 1 10:53:15.70 121.353 00:03:26 Yes
3 Golden Knights Loft - CA 17424-AU22-ARPU Hi Blood BB H 2 10:53:30.90 119.079 00:03:41 Yes
4 Funny Farm Loft - CA 6005-AU22-ARC 5332/2279 BC H 1 10:53:32.80 118.800 00:03:43 Yes
5 Ee Martin Lofts - CA 17608-AU22-ARPU BCWF H 1 10:53:43.60 117.243 00:03:54 Yes
6 Sierra Ranch - CA 0184-AU22-SIER BB H 1 10:53:46.10 116.888 00:03:57 Yes
7 Bay Diamond Team - CA 0009-AU22-TRAN BBWF H 1 10:54:01.40 114.762 00:04:12 Yes
8 Alfonso Gonzalez - CA 2420-AU22-FORT BC H 1 10:54:08.90 113.748 00:04:19 Yes
9 Mendoza Loft - CA 5423-AU22-JEDD BB H 1 10:54:16.00 112.804 00:04:27 Yes
10 Wilson Chu - Zhong Hua Ge Ye - CA 0801-AU22-MTZ BB H 1 10:54:19.00 112.411 00:04:29 Yes
11 Jerrys1LoftRace - TX 0075-AU22-CUST BB C 1 10:54:28.10 111.232 00:04:39 Yes
12 Golden Knights Loft - CA 17425-AU22-ARPU Lo Blood BB H 3 10:54:28.80 111.143 00:04:39 Yes
13 Juan Romo - CA 0005-AU22-ROMO BB H 1 10:54:38.40 109.928 00:04:49 Yes
14 Avery Megan Loft - CA 15076-AU22-JEDD BB H 1 10:54:40.40 109.678 00:04:51 Yes
15 Raizen Loft - WA 4416-AU22-RAIZ DC H 1 10:54:44.90 109.121 00:04:55 Yes
16 Lopez Lopez Loft - CA 70510-AU22-ARPU BC H 1 10:54:48.40 108.690 00:04:59 Yes
17 Chavo Vergara Y Mina Nueva - TN 0221-IF22-SCHO BB H 1 10:55:02.10 107.040 00:05:13 Yes
18 Bloodline Racing Syndicate - CA 7102-AU22-JEDD BC H 1 10:55:04.30 106.779 00:05:15 Yes
19 J L Loft - GA 0055-AU22-JYL BB H 1 10:55:08.90 106.239 00:05:19 Yes
20 Jesus Avalos - CA 44614-AU22-JEDD BBWF H 1 10:55:16.70 105.335 00:05:27 Yes
21 Juan Romo - CA 0060-AU22-ROMO BB H 2 10:55:17.00 105.300 00:05:28 Yes
22 Baro Union Roger Fernndez Sal Perez - CA 21711-AU22-MAN BBWF H 1 10:55:24.00 104.503 00:05:34 Yes
23 LFernandez-Autofix-AKA - CA 0152-AU22-TCH BB C 1 10:55:33.20 103.473 00:05:44 Yes
24 Wilson Chu - Zhong Hua Ge Ye - CA 0802-AU22-MTZ BBWF C 2 10:55:36.80 103.075 00:05:47 Yes
25 Avery Megan Loft - CA 15077-AU22-JEDD BB H 2 10:55:48.50 101.804 00:05:59 Yes
26 Mendoza Loft - CA 5411-AU22-JEDD BB H 2 10:56:14.60 99.077 00:06:25 Yes
27 Guinto-Hedderson - CA 2605-AU22-FORT BC C 1 10:56:15.30 99.006 00:06:26 Yes
28 FRANCOS CLASSIC - CA 2418-AU22-SFR BB H 1 10:57:20.90 92.767 00:07:31 Yes
29 FRANCOS CLASSIC - CA 2413-AU22-SFR WAIT H 2 10:57:27.10 92.217 00:07:38 Yes
30 Texas-Syndicate-Loft - TX 3822-AU22-FOYS BB H 1 10:57:30.90 91.883 00:07:41 Yes
31 Alegre Loft - CA 1204-AU22-FMT BB H 1 10:57:34.90 91.535 00:07:45 Yes
32 Los Tocayos loft - CA 0195-AU22-SALD BCWF H 1 10:57:40.80 91.027 00:07:51 Yes
33 Barreras-Team - CA 2004-AU22-JBL BB H 1 10:57:46.60 90.531 00:07:57 Yes
34 H. Padilla/Capilla - MI 0926-AU22-MTZ BB H 1 10:57:49.90 90.252 00:08:00 Yes
35 Beto's Loft - CA 2124-AU22-SFR BCWF C 1 10:57:55.70 89.766 00:08:06 Yes
36 Alegre Loft - CA 1203-AU22-FMT BB H 2 10:58:00.80 89.341 00:08:11 Yes
37 3 Amigos Lofts - CA 0714-AU22-HAY BC C 2 10:58:04.70 89.020 00:08:15 Yes
38 Gomez & Martin Loft - CA 0702-AU22-SFPC BC H 1 10:58:09.10 88.661 00:08:20 Yes
39 MABALASIK SYNDICATE - CA 32905-AU22-AA IU BB H 1 10:58:18.00 87.942 00:08:28 Yes
40 Silicon Valley Syndicate - CA 22013-AU22-SVS DC H 1 10:58:24.10 87.457 00:08:35 Yes
41 Maharlika Loft - CA 11855-AU22-JEDD Showtime BC H 1 10:58:26.10 87.299 00:08:37 Yes
42 Jesus Avalos - CA 44601-AU22-JEDD BCWF C 2 10:58:41.20 86.123 00:08:52 Yes
43 Tenbrink and Sanders - CA 0105-AU22-GENE BC C 1 10:58:43.90 85.916 00:08:54 Yes
44 Vanstich - WA 0117-AU22-ARAM PATRON BB H 1 10:58:51.00 85.377 00:09:01 Yes
45 Roger fernandez Family - CA 21704-AU22-MAN BC H 1 10:58:56.80 84.940 00:09:07 Yes
46 Golden Knights Loft - CA 17437-AU22-ARPU Marion BC H 4 10:59:14.00 83.675 00:09:24 Yes
47 Jose & Molo - CA 2021-AU22-JBL BB C 1 10:59:27.50 82.707 00:09:38 Yes
48 Tepa sindicato - CA 3418-AU22-SFR DC C 1 10:59:42.60 81.651 00:09:53 Yes
49 Sierra Ranch - CA 0185-AU22-SIER BB C 2 10:59:52.00 81.008 00:10:02 Yes
50 Guinto-Hedderson - CA 2606-AU22-FORT BC H 2 10:59:54.30 80.851 00:10:05 Yes
51 Deisher-Horner-Deisher - IL 0707-AU22-CRP BB H 1 11:00:00.30 80.447 00:10:11 Yes
52 Rodriguez Loft - TX 22644-AU22-WIN 18489-084 BB H 1 11:00:00.70 80.421 00:10:11 Yes
53 Ms. Loft - CA 70517-AU22-ARPU Juanita BC H 1 11:00:16.70 79.363 00:10:27 Yes
54 Ramirez Loft - TX 0043-MX22-MX GRIZ H 1 11:00:34.40 78.225 00:10:45 Yes
55 Fco Avalos Loft - CA 2547-AU22-TULE BB H 1 11:00:53.40 77.039 00:11:04 Yes
56 Paco Loft - CA 0274-AU22-PACO BC H 1 11:01:04.80 76.344 00:11:15 Yes
57 G D L - L O F T - G T - CA 28965-AU22-DV GDL SPECIAL BBWF H 1 11:01:10.60 75.996 00:11:21 Yes
58 Lopez Lopez Loft - CA 70511-AU22-ARPU DC C 2 11:01:17.50 75.585 00:11:28 Yes
59 Thunder Birds Breeding Loft - TX 56439-AU22-ARPU CANDY'S CHOICE DC C 1 11:01:19.20 75.486 00:11:30 Yes
60 H. Padilla/Capilla - MI 0212-IF22-SCHO BC H 2 11:01:27.00 75.027 00:11:38 Yes
61 Skyruiz Loft - CA 0028-AU22-CVC BC H 1 11:01:27.90 74.975 00:11:38 Yes
62 Meualam Loft - CA 1605-AU22-FOYS Toyota supra DC H 1 11:01:39.70 74.295 00:11:50 Yes
63 God Speed Loft - CA 7118-AU22-JEDD BC H 1 11:01:49.70 73.727 00:12:00 Yes
64 Bieche Lofts - CA 2013-AU22-BIEC BC C 1 11:01:51.90 73.604 00:12:02 Yes
65 Slapsoil Loft Syndicate Gm - CA 6302-AU22-VITA SILVER # GEERINCKX BB H 1 11:02:02.60 73.008 00:12:13 Yes
66 Beto's Loft - CA 2123-AU22-SFR BB C 2 11:02:04.70 72.892 00:12:15 Yes
67 Sal Perez - CA 2033-AU22-SFR DC C 1 11:02:13.00 72.439 00:12:23 Yes
68 IBRATSYNDICATE - CA 0056-AU22-IBAR BB 0 1 11:02:15.50 72.303 00:12:26 Yes
69 Hi-Cal Connection - CA 0822-AU22-HICA BB H 1 11:02:25.30 71.777 00:12:36 Yes
70 Paco Loft - CA 0273-AU22-PACO BC H 2 11:02:27.80 71.643 00:12:38 Yes
71 Kereru Whare - CA 0032-AU22-BISH RC C 1 11:02:36.90 71.162 00:12:47 Yes
72 adobo Nation - CA 3909-AU22-JEDD BC H 1 11:02:37.70 71.121 00:12:48 Yes
73 3 Amigos Lofts - CA 0710-AU22-HAY BC H 3 11:02:51.00 70.431 00:13:02 Yes
74 Genesis Syndicate Loft - AZ 0617-AU22-GENE BCWF H 1 11:03:04.50 69.744 00:13:15 Yes
75 Texas-Syndicate-Loft - TX 3832-AU22-FOYS DC H 2 11:03:10.70 69.433 00:13:21 Yes
76 adobo Nation - CA 0364-AU22-ARAM BB H 2 11:03:17.40 69.100 00:13:28 Yes
77 GM9LOFT - CA 6349-AU22-VITA HOOSIER 54 PLACE BCWF H 1 11:03:21.50 68.898 00:13:32 Yes
78 Western Loft - CA 5496-AU22-VITA INCOGNITO BB C 1 11:03:31.10 68.429 00:13:42 Yes
79 K/N Loft - HI 0052-AU22-FIA DC C 1 11:03:33.90 68.294 00:13:44 Yes
80 Ms. Loft - CA 70509-AU22-ARPU Maria BB H 2 11:03:43.00 67.857 00:13:54 Yes
81 H. Padilla/Capilla - MI 0934-AU22-MTZ BB H 3 11:03:47.20 67.657 00:13:58 Yes
82 Bieche Lofts - CA 2012-AU22-BIEC SILV H 2 11:03:52.10 67.426 00:14:03 Yes
83 Kris Kaye Family Loft - CA 7207-AU22-FOYS 2139205x80139 BB H 1 11:03:59.30 67.089 00:14:10 Yes
84 Aimrude Syndicate - CA 0327-AU22-RUDE BC H 1 11:04:03.20 66.908 00:14:14 Yes
85 Genesis Syndicate Loft - AZ 0655-AU22-GENE BB H 2 11:04:06.80 66.741 00:14:17 Yes
86 Western Loft - CA 52709-AU22-ARPU K-ZEE BBWF H 2 11:04:10.50 66.570 00:14:21 Yes
87 Herrera Loft - CA 0117-AU22-HERR BBWF H 1 11:04:18.90 66.187 00:14:29 Yes
88 Tepa sindicato - CA 3406-AU22-SFR RC H 2 11:04:21.50 66.070 00:14:32 Yes
89 3 Amigos Lofts - CA 0711-AU22-HAY BB C 4 11:04:24.40 65.938 00:14:35 Yes
90 Jose & Molo - CA 2013-AU22-JBL BB H 2 11:04:30.40 65.669 00:14:41 Yes
91 Kris Kaye Family Loft - CA 7202-AU22-FOYS 16317x1111 BCWF H 2 11:04:38.40 65.315 00:14:49 Yes
92 J L Loft - GA 0023-AU22-JYL BB H 2 11:04:41.40 65.182 00:14:52 Yes
93 MABALASIK SYNDICATE - CA 32909-AU22-AA Choi ji-woo BBWF H 2 11:04:48.50 64.871 00:14:59 Yes
94 J L Loft - GA 0003-AU22-JYL BBWF H 3 11:04:53.30 64.663 00:15:04 Yes
95 R Reyes Lofts - CA 70513-AU22-ARPU BC H 1 11:04:57.50 64.482 00:15:08 Yes
96 Prouts Loft - CA 0538-AU22-PROU BB H 1 11:05:02.10 64.284 00:15:13 Yes
97 Tepa sindicato - CA 3409-AU22-SFR BBWF C 3 11:05:03.90 64.206 00:15:14 Yes
98 Jose & Molo - CA 1402-AU22-MOLO BC C 3 11:05:11.40 63.888 00:15:22 Yes
99 ** J-Ireneo Loft ** - CA 3919-AU22-JEDD BB C 1 11:05:13.90 63.783 00:15:24 Yes
100 adobo Nation - CA 0358-AU22-ARAM BB H 3 11:05:22.30 63.431 00:15:33 Yes

There are 614 bird records

Note: These Race Results are unofficial and subject to change until verified by the Race Committee and declared final.

 

 


windy
Click for Forecast for 94533 from weatherUSA